Regional Weather Roundup
Issued by NWS

Home | Current Version | Previous Version | Text Only | Print | Product List | Glossary On
Versions: 1 2 3 4 5 6 7 8 9 10 11 12 13 14 15 16 17 18 19 20 21 22 23 24 25 26 27 28 29 30 31 32 33 34 35 36 37 38 39 40 41 42 43 44 45 46 47 48 49 50
000
ASUS44 KOUN 262000
RWROK

WEATHER ROUNDUP FOR OKLAHOMA
NATIONAL WEATHER SERVICE NORMAN OK
200 PM CST FRI DEC 26 2014

NOTE: "FAIR" INDICATES FEW OR NO CLOUDS BELOW 12,000 FEET WITH NO
      SIGNIFICANT WEATHER AND/OR OBSTRUCTIONS TO VISIBILITY.

OKZ001>007-009>012-014-015-017-262100-
NORTHWEST OKLAHOMA AND THE PANHANDLE

CITY           SKY/WX    TMP DP  RH WIND       PRES   REMARKS
GAGE           CLOUDY    34  28  79 N13       29.90F WCI  25
$$

OKZ016-021>023-033>039-044-045-262100-
SOUTHWEST OKLAHOMA

CITY           SKY/WX    TMP DP  RH WIND       PRES   REMARKS
LAWTON/REGL    PTSUNNY   60  46  59 S7        29.84F
FREDERICK      SUNNY     62  41  46 SW10      29.81F
CLINTON        CLOUDY    48  32  53 NW14      29.89R
HOBART         PTSUNNY   56  38  50 N16       29.86S
ALTUS AFB      SUNNY     62  38  42 W6        29.83F
$$

OKZ018>020-024>031-262100-
CENTRAL OKLAHOMA

CITY           SKY/WX    TMP DP  RH WIND       PRES   REMARKS
OKLAHOMA CITY  PTSUNNY   61  44  53 S14G22    29.84F
OKC/WILEY POST CLOUDY    59  44  57 S10       29.85F
STILLWATER     CLOUDY    60  43  53 SW9       29.85F
GUTHRIE        CLOUDY    59  44  57 SW9       29.85F
$$

OKZ008-013-054>072-262100-
NORTHEAST OKLAHOMA

CITY           SKY/WX    TMP DP  RH WIND       PRES   REMARKS
TULSA          CLOUDY    58  50  75 S20       29.87F
TULSA/JONES    CLOUDY    57  49  74 S10       29.89F
PONCA CITY     CLOUDY    50  38  63 NW10      29.88F
BARTLESVILLE   CLOUDY    59  45  59 S15G21    29.88F
MUSKOGEE       CLOUDY    55  48  77 SE15G23   29.92F
$$

OKZ032-040>043-046>053-073>077-262100-
SOUTH CENTRAL/SOUTHEAST OKLAHOMA

CITY           SKY/WX    TMP DP  RH WIND       PRES   REMARKS
MCALESTER      CLOUDY    56  50  80 SE7       29.91F
$$



USA.gov is the U.S. government's official web portal to all federal, state and local government web resources and services.